Wetterdaten der Wetterstation 22117 Öjendorf (Hamburg)

Letzte Wetterlage 26.01.2015 11:07
Wetterdiagramm
Tabellarische Darstellung
Datum Temperatur Windchill Feuchte Luftdruck Windrichtung Windstärke Niederschlag
26.01.2015 11:07 2,7 °C 2,7 °C 94 % 1017,0 hPa 0.0 2,90 mm
26.01.2015 10:47 2,7 °C 2,7 °C 94 % 1017,4 hPa 0.0 2,60 mm
26.01.2015 10:37 2,6 °C 2,6 °C 94 % 1017,4 hPa 0.0 2,40 mm
26.01.2015 10:27 2,6 °C 2,6 °C 94 % 1017,6 hPa 0.0 2,30 mm
26.01.2015 10:17 2,6 °C 2,6 °C 94 % 1017,8 hPa 0.0 2,00 mm
26.01.2015 10:07 2,6 °C 2,6 °C 94 % 1017,9 hPa 0.0 1,80 mm
26.01.2015 09:57 2,6 °C 2,6 °C 94 % 1018,1 hPa 0.0 1,60 mm
26.01.2015 09:47 2,6 °C 2,6 °C 94 % 1018,2 hPa 0.0 1,50 mm
26.01.2015 09:37 2,5 °C 2,5 °C 94 % 1018,3 hPa 0.0 1,20 mm
26.01.2015 09:27 2,5 °C 2,5 °C 94 % 1018,4 hPa 0.0 0,90 mm
26.01.2015 09:17 2,5 °C 2,5 °C 94 % 1018,6 hPa 0.0 0,70 mm
26.01.2015 09:07 2,5 °C 2,5 °C 94 % 1018,8 hPa 0.0 0,60 mm
26.01.2015 08:57 2,5 °C 2,5 °C 94 % 1018,9 hPa 0.0 0,40 mm
26.01.2015 08:47 2,5 °C 2,5 °C 94 % 1019,0 hPa 0.0 0,30 mm
26.01.2015 08:37 2,5 °C 2,5 °C 94 % 1019,1 hPa 0.0 0,20 mm
26.01.2015 08:27 2,5 °C 2,5 °C 94 % 1019,2 hPa 0.0 0,10 mm
26.01.2015 08:17 2,5 °C 2,5 °C 94 % 1019,4 hPa 0.0 0,00 mm
26.01.2015 08:07 2,5 °C 2,5 °C 94 % 1019,4 hPa 0.0 0,00 mm
26.01.2015 07:57 2,5 °C 2,5 °C 94 % 1019,5 hPa 0.0 0,00 mm
26.01.2015 07:47 2,5 °C 2,5 °C 94 % 1019,6 hPa 0.0 0,00 mm
26.01.2015 07:37 2,5 °C 2,5 °C 94 % 1019,7 hPa 0.0 0,00 mm
26.01.2015 07:27 2,5 °C 2,5 °C 94 % 1019,9 hPa 0.0 0,00 mm
26.01.2015 07:17 2,5 °C 2,5 °C 94 % 1020,0 hPa 0.0 0,00 mm
26.01.2015 07:07 2,5 °C 2,5 °C 94 % 1020,1 hPa 0.0 0,00 mm
26.01.2015 06:57 2,5 °C 2,5 °C 94 % 1020,1 hPa 0.0 0,00 mm
Neue Wetterwarnung

Neue Niederschlagsmeldung
Neue Meldung
Regen Liveticker
    sehr starker Regen/Gewitter
    starker Regen/Gewitter
    mäßiger bis starker Regen
    mäßiger Regen
    leichter bis mäßiger Regen
    kein Regen
    Empfehlen Sie wetter.com